Wetterdaten: Donnerstag, 26.08.2010
Datum Zeit Temp. A. Feuchte A. Luftdruck Regen Wind Richtung Richtung Sonnenschein UV Solar Windben
26.08.2010 00:00 16,3 C 72 % 1013,6 hPa 0,0 mm 0,0 km/h (0 Bft) S 180 0 min 0 UV-I 0 W/m 1,6 km/h (1 Bft)
26.08.2010 00:10 16,3 C 72 % 1013,6 hPa 0,0 mm 0,0 km/h (0 Bft) N 0 0 min 0 UV-I 0 W/m 0,0 km/h (0 Bft)
26.08.2010 00:20 16,2 C 72 % 1013,6 hPa 0,0 mm 0,0 km/h (0 Bft) N 0 0 min 0 UV-I 0 W/m 0,0 km/h (0 Bft)
26.08.2010 00:30 16,2 C 73 % 1013,5 hPa 0,0 mm 0,0 km/h (0 Bft) N 0 0 min 0 UV-I 0 W/m 0,0 km/h (0 Bft)
26.08.2010 00:40 16,2 C 73 % 1013,6 hPa 0,0 mm 0,0 km/h (0 Bft) N 0 0 min 0 UV-I 0 W/m 0,0 km/h (0 Bft)
26.08.2010 00:50 16,2 C 73 % 1013,4 hPa 0,0 mm 0,0 km/h (0 Bft) N 0 0 min 0 UV-I 0 W/m 0,0 km/h (0 Bft)
26.08.2010 01:00 16,2 C 73 % 1013,4 hPa 0,0 mm 0,0 km/h (0 Bft) S 180 0 min 0 UV-I 0 W/m 1,6 km/h (1 Bft)
26.08.2010 01:10 16,2 C 75 % 1013,2 hPa 0,0 mm 0,0 km/h (0 Bft) N 0 0 min 0 UV-I 0 W/m 0,0 km/h (0 Bft)
26.08.2010 01:20 16,1 C 76 % 1013,0 hPa 0,0 mm 0,0 km/h (0 Bft) N 0 0 min 0 UV-I 0 W/m 0,0 km/h (0 Bft)
26.08.2010 01:30 15,9 C 77 % 1012,8 hPa 0,0 mm 0,0 km/h (0 Bft) N 0 0 min 0 UV-I 0 W/m 0,0 km/h (0 Bft)
26.08.2010 01:40 15,8 C 77 % 1012,8 hPa 0,0 mm 0,0 km/h (0 Bft) S 180 0 min 0 UV-I 0 W/m 1,6 km/h (1 Bft)
26.08.2010 01:50 15,8 C 79 % 1012,8 hPa 0,0 mm 0,0 km/h (0 Bft) S 180 0 min 0 UV-I 0 W/m 1,6 km/h (1 Bft)
26.08.2010 02:00 15,7 C 79 % 1012,6 hPa 0,0 mm 0,0 km/h (0 Bft) N 0 0 min 0 UV-I 0 W/m 0,0 km/h (0 Bft)
26.08.2010 02:10 15,6 C 80 % 1012,5 hPa 0,0 mm 0,0 km/h (0 Bft) N 0 0 min 0 UV-I 0 W/m 0,0 km/h (0 Bft)
26.08.2010 02:20 15,5 C 81 % 1012,4 hPa 0,0 mm 0,0 km/h (0 Bft) N 0 0 min 0 UV-I 0 W/m 0,0 km/h (0 Bft)
26.08.2010 02:30 15,4 C 83 % 1012,3 hPa 0,0 mm 0,0 km/h (0 Bft) N 0 0 min 0 UV-I 0 W/m 0,0 km/h (0 Bft)
26.08.2010 02:40 15,2 C 84 % 1012,2 hPa 0,0 mm 0,0 km/h (0 Bft) S 180 0 min 0 UV-I 0 W/m 1,6 km/h (1 Bft)
26.08.2010 02:50 15,1 C 85 % 1012,2 hPa 0,0 mm 0,0 km/h (0 Bft) N 0 0 min 0 UV-I 0 W/m 0,0 km/h (0 Bft)
26.08.2010 03:00 15,1 C 87 % 1012,2 hPa 0,3 mm 0,0 km/h (0 Bft) N 0 0 min 0 UV-I 0 W/m 0,0 km/h (0 Bft)
26.08.2010 03:10 15,1 C 87 % 1012,1 hPa 0,0 mm 0,0 km/h (0 Bft) S 180 0 min 0 UV-I 0 W/m 1,6 km/h (1 Bft)
26.08.2010 03:20 15,1 C 87 % 1012,0 hPa 0,3 mm 0,0 km/h (0 Bft) S 180 0 min 0 UV-I 0 W/m 1,6 km/h (1 Bft)
26.08.2010 03:30 15,1 C 88 % 1011,4 hPa 0,0 mm 0,0 km/h (0 Bft) S 180 0 min 0 UV-I 0 W/m 1,6 km/h (1 Bft)
26.08.2010 03:40 15,0 C 88 % 1011,3 hPa 0,0 mm 0,0 km/h (0 Bft) SO 135 0 min 0 UV-I 0 W/m 3,2 km/h (1 Bft)
26.08.2010 03:50 14,8 C 88 % 1011,2 hPa 0,0 mm 0,0 km/h (0 Bft) SO 135 0 min 0 UV-I 0 W/m 1,6 km/h (1 Bft)
26.08.2010 04:00 14,8 C 89 % 1011,2 hPa 0,3 mm 0,0 km/h (0 Bft) SO 135 0 min 0 UV-I 0 W/m 1,6 km/h (1 Bft)
26.08.2010 04:10 14,8 C 89 % 1011,1 hPa 0,3 mm 0,0 km/h (0 Bft) SO 135 0 min 0 UV-I 0 W/m 1,6 km/h (1 Bft)
26.08.2010 04:20 14,8 C 89 % 1010,9 hPa 0,0 mm 0,0 km/h (0 Bft) SO 135 0 min 0 UV-I 0 W/m 3,2 km/h (1 Bft)
26.08.2010 04:30 14,7 C 90 % 1010,6 hPa 0,3 mm 0,0 km/h (0 Bft) SO 135 0 min 0 UV-I 0 W/m 3,2 km/h (1 Bft)
26.08.2010 04:40 14,6 C 90 % 1010,3 hPa 0,3 mm 1,6 km/h (1 Bft) O 90 0 min 0 UV-I 0 W/m 4,8 km/h (1 Bft)
26.08.2010 04:50 14,4 C 90 % 1009,8 hPa 0,5 mm 1,6 km/h (1 Bft) O-SO 112 0 min 0 UV-I 0 W/m 6,4 km/h (2 Bft)
26.08.2010 05:00 14,3 C 90 % 1009,8 hPa 0,0 mm 1,6 km/h (1 Bft) O-SO 112 0 min 0 UV-I 0 W/m 6,4 km/h (2 Bft)
26.08.2010 05:10 14,3 C 91 % 1009,5 hPa 0,3 mm 1,6 km/h (1 Bft) O-SO 112 0 min 0 UV-I 0 W/m 6,4 km/h (2 Bft)
26.08.2010 05:20 14,3 C 91 % 1009,6 hPa 0,0 mm 0,0 km/h (0 Bft) O-SO 112 0 min 0 UV-I 0 W/m 6,4 km/h (2 Bft)
26.08.2010 05:30 14,3 C 91 % 1009,3 hPa 0,0 mm 0,0 km/h (0 Bft) O-SO 112 0 min 0 UV-I 0 W/m 1,6 km/h (1 Bft)
26.08.2010 05:40 14,3 C 91 % 1009,1 hPa 0,3 mm 0,0 km/h (0 Bft) O-SO 112 0 min 0 UV-I 0 W/m 3,2 km/h (1 Bft)
26.08.2010 05:50 14,3 C 91 % 1008,8 hPa 0,0 mm 0,0 km/h (0 Bft) O-SO 112 0 min 0 UV-I 0 W/m 1,6 km/h (1 Bft)
26.08.2010 06:00 14,3 C 91 % 1008,7 hPa 0,0 mm 0,0 km/h (0 Bft) O-SO 112 0 min 0 UV-I 0 W/m 3,2 km/h (1 Bft)
26.08.2010 06:10 14,4 C 92 % 1008,5 hPa 0,0 mm 0,0 km/h (0 Bft) O-SO 112 0 min 0 UV-I 0 W/m 3,2 km/h (1 Bft)
26.08.2010 06:20 14,4 C 92 % 1008,3 hPa 0,0 mm 1,6 km/h (1 Bft) O-SO 112 0 min 0 UV-I 0 W/m 6,4 km/h (2 Bft)
26.08.2010 06:30 14,4 C 92 % 1008,1 hPa 0,0 mm 0,0 km/h (0 Bft) O-SO 112 0 min 0 UV-I 0 W/m 3,2 km/h (1 Bft)
26.08.2010 06:40 14,4 C 91 % 1008,1 hPa 0,0 mm 0,0 km/h (0 Bft) O-SO 112 0 min 0 UV-I 0 W/m 3,2 km/h (1 Bft)
26.08.2010 06:50 14,6 C 92 % 1008,0 hPa 0,0 mm 0,0 km/h (0 Bft) SO 135 0 min 0 UV-I 0 W/m 1,6 km/h (1 Bft)
26.08.2010 07:00 14,7 C 92 % 1007,8 hPa 0,0 mm 0,0 km/h (0 Bft) SO 135 0 min 0 UV-I 5 W/m 3,2 km/h (1 Bft)
26.08.2010 07:10 14,7 C 91 % 1007,7 hPa 0,0 mm 0,0 km/h (0 Bft) SO 135 0 min 0 UV-I 5 W/m 1,6 km/h (1 Bft)
26.08.2010 07:20 14,8 C 91 % 1007,7 hPa 0,0 mm 0,0 km/h (0 Bft) SO 135 0 min 0 UV-I 5 W/m 3,2 km/h (1 Bft)
26.08.2010 07:30 14,9 C 92 % 1007,5 hPa 0,0 mm 0,0 km/h (0 Bft) SO 135 0 min 0 UV-I 11 W/m 3,2 km/h (1 Bft)
26.08.2010 07:40 15,0 C 92 % 1007,3 hPa 0,3 mm 0,0 km/h (0 Bft) SO 135 0 min 0 UV-I 30 W/m 3,2 km/h (1 Bft)
26.08.2010 07:50 15,1 C 92 % 1007,5 hPa 0,3 mm 0,0 km/h (0 Bft) O 90 0 min 0 UV-I 21 W/m 1,6 km/h (1 Bft)
26.08.2010 08:00 15,1 C 92 % 1007,7 hPa 0,8 mm 0,0 km/h (0 Bft) O 90 0 min 0 UV-I 18 W/m 1,6 km/h (1 Bft)
26.08.2010 08:10 15,1 C 92 % 1008,3 hPa 1,5 mm 0,0 km/h (0 Bft) O 90 0 min 0 UV-I 5 W/m 4,8 km/h (1 Bft)
26.08.2010 08:20 15,1 C 92 % 1007,6 hPa 1,0 mm 0,0 km/h (0 Bft) O-NO 67 0 min 0 UV-I 0 W/m 4,8 km/h (1 Bft)
26.08.2010 08:30 15,1 C 92 % 1007,4 hPa 0,3 mm 1,6 km/h (1 Bft) O-NO 67 0 min 0 UV-I 37 W/m 4,8 km/h (1 Bft)
26.08.2010 08:40 15,1 C 92 % 1007,5 hPa 0,3 mm 1,6 km/h (1 Bft) O 90 0 min 0 UV-I 30 W/m 4,8 km/h (1 Bft)
26.08.2010 08:50 15,1 C 93 % 1007,9 hPa 1,3 mm 0,0 km/h (0 Bft) O 90 0 min 0 UV-I 14 W/m 4,8 km/h (1 Bft)
26.08.2010 09:00 15,1 C 93 % 1007,5 hPa 1,8 mm 0,0 km/h (0 Bft) O 90 0 min 0 UV-I 46 W/m 6,4 km/h (2 Bft)
26.08.2010 09:10 15,3 C 93 % 1007,1 hPa 0,0 mm 1,6 km/h (1 Bft) O 90 0 min 1 UV-I 105 W/m 6,4 km/h (2 Bft)
26.08.2010 09:20 15,6 C 93 % 1007,0 hPa 0,0 mm 1,6 km/h (1 Bft) O-SO 112 0 min 1 UV-I 88 W/m 6,4 km/h (2 Bft)
26.08.2010 09:30 15,7 C 93 % 1007,3 hPa 0,3 mm 0,0 km/h (0 Bft) S 180 0 min 0 UV-I 47 W/m 3,2 km/h (1 Bft)
26.08.2010 09:40 15,9 C 94 % 1007,0 hPa 0,8 mm 0,0 km/h (0 Bft) S 180 0 min 1 UV-I 58 W/m 3,2 km/h (1 Bft)
26.08.2010 09:50 16,1 C 93 % 1006,7 hPa 0,5 mm 0,0 km/h (0 Bft) S 180 0 min 1 UV-I 77 W/m 4,8 km/h (1 Bft)
26.08.2010 10:00 16,2 C 93 % 1006,7 hPa 0,0 mm 0,0 km/h (0 Bft) S-SO 157 0 min 1 UV-I 76 W/m 4,8 km/h (1 Bft)
26.08.2010 10:10 16,1 C 94 % 1006,6 hPa 0,3 mm 1,6 km/h (1 Bft) S-SO 157 0 min 0 UV-I 53 W/m 8,0 km/h (2 Bft)
26.08.2010 10:20 16,1 C 94 % 1006,5 hPa 0,3 mm 1,6 km/h (1 Bft) SO 135 0 min 0 UV-I 51 W/m 6,4 km/h (2 Bft)
26.08.2010 10:30 16,1 C 94 % 1006,4 hPa 0,0 mm 1,6 km/h (1 Bft) S 180 0 min 0 UV-I 40 W/m 8,0 km/h (2 Bft)
26.08.2010 10:40 16,1 C 94 % 1006,4 hPa 0,0 mm 0,0 km/h (0 Bft) S-SO 157 0 min 1 UV-I 86 W/m 4,8 km/h (1 Bft)
26.08.2010 10:50 16,2 C 94 % 1006,3 hPa 0,0 mm 0,0 km/h (0 Bft) S-SO 157 0 min 1 UV-I 74 W/m 3,2 km/h (1 Bft)
26.08.2010 11:00 16,4 C 94 % 1006,2 hPa 0,3 mm 0,0 km/h (0 Bft) S-SO 157 0 min 1 UV-I 86 W/m 1,6 km/h (1 Bft)
26.08.2010 11:10 16,5 C 94 % 1006,3 hPa 0,0 mm 0,0 km/h (0 Bft) S-SO 157 0 min 1 UV-I 84 W/m 6,4 km/h (2 Bft)
26.08.2010 11:20 16,7 C 94 % 1006,3 hPa 0,0 mm 0,0 km/h (0 Bft) S-SO 157 0 min 1 UV-I 102 W/m 4,8 km/h (1 Bft)
26.08.2010 11:30 17,0 C 94 % 1006,2 hPa 0,0 mm 0,0 km/h (0 Bft) S 180 0 min 1 UV-I 77 W/m 4,8 km/h (1 Bft)
26.08.2010 11:40 17,4 C 94 % 1006,2 hPa 0,0 mm 3,2 km/h (1 Bft) W 270 0 min 1 UV-I 88 W/m 8,0 km/h (2 Bft)
26.08.2010 11:50 17,9 C 95 % 1006,2 hPa 0,3 mm 3,2 km/h (1 Bft) SW 225 0 min 2 UV-I 213 W/m 14,5 km/h (3 Bft)
26.08.2010 12:00 18,7 C 94 % 1006,1 hPa 0,0 mm 4,8 km/h (1 Bft) SW 225 0 min 2 UV-I 211 W/m 20,9 km/h (4 Bft)
26.08.2010 12:10 19,0 C 94 % 1006,0 hPa 0,0 mm 6,4 km/h (2 Bft) SW 225 0 min 3 UV-I 274 W/m 19,3 km/h (3 Bft)
26.08.2010 12:20 19,2 C 93 % 1006,1 hPa 0,0 mm 6,4 km/h (2 Bft) W-SW 247 0 min 3 UV-I 283 W/m 22,5 km/h (4 Bft)
26.08.2010 12:30 19,4 C 93 % 1006,2 hPa 0,0 mm 6,4 km/h (2 Bft) S-SW 202 0 min 2 UV-I 202 W/m 24,1 km/h (4 Bft)
26.08.2010 12:40 19,6 C 92 % 1006,2 hPa 0,0 mm 8,0 km/h (2 Bft) W-SW 247 0 min 2 UV-I 167 W/m 24,1 km/h (4 Bft)
26.08.2010 12:50 19,6 C 91 % 1006,3 hPa 0,0 mm 6,4 km/h (2 Bft) W-SW 247 0 min 1 UV-I 114 W/m 19,3 km/h (3 Bft)
26.08.2010 13:00 19,8 C 90 % 1006,3 hPa 0,0 mm 8,0 km/h (2 Bft) SW 225 0 min 2 UV-I 155 W/m 20,9 km/h (4 Bft)
26.08.2010 13:10 20,0 C 88 % 1006,2 hPa 0,0 mm 8,0 km/h (2 Bft) W-SW 247 0 min 1 UV-I 118 W/m 27,4 km/h (4 Bft)
26.08.2010 13:20 20,3 C 86 % 1006,4 hPa 0,0 mm 11,3 km/h (2 Bft) W-SW 247 0 min 2 UV-I 209 W/m 25,7 km/h (4 Bft)
26.08.2010 13:30 20,6 C 81 % 1007,0 hPa 0,0 mm 9,7 km/h (2 Bft) W-NW 292 0 min 2 UV-I 158 W/m 25,7 km/h (4 Bft)
26.08.2010 13:40 19,0 C 85 % 1007,5 hPa 0,0 mm 6,4 km/h (2 Bft) W-NW 292 0 min 0 UV-I 40 W/m 22,5 km/h (4 Bft)
26.08.2010 13:50 17,8 C 88 % 1007,2 hPa 0,0 mm 3,2 km/h (1 Bft) W-NW 292 0 min 1 UV-I 58 W/m 9,7 km/h (2 Bft)
26.08.2010 14:00 17,4 C 90 % 1007,5 hPa 0,0 mm 1,6 km/h (1 Bft) NW 315 0 min 2 UV-I 158 W/m 8,0 km/h (2 Bft)
26.08.2010 14:10 17,4 C 92 % 1007,6 hPa 0,0 mm 1,6 km/h (1 Bft) NW 315 0 min 2 UV-I 169 W/m 6,4 km/h (2 Bft)
26.08.2010 14:20 17,6 C 91 % 1007,7 hPa 0,0 mm 1,6 km/h (1 Bft) W-NW 292 0 min 2 UV-I 132 W/m 8,0 km/h (2 Bft)
26.08.2010 14:30 17,8 C 91 % 1007,4 hPa 0,0 mm 0,0 km/h (0 Bft) NW 315 0 min 2 UV-I 213 W/m 3,2 km/h (1 Bft)
26.08.2010 14:40 18,2 C 90 % 1007,4 hPa 0,0 mm 0,0 km/h (0 Bft) NW 315 0 min 2 UV-I 216 W/m 4,8 km/h (1 Bft)
26.08.2010 14:50 18,5 C 90 % 1007,3 hPa 0,3 mm 0,0 km/h (0 Bft) O-NO 67 0 min 2 UV-I 206 W/m 1,6 km/h (1 Bft)
26.08.2010 15:00 18,7 C 90 % 1007,1 hPa 0,0 mm 0,0 km/h (0 Bft) N 0 0 min 1 UV-I 86 W/m 0,0 km/h (0 Bft)
26.08.2010 15:10 18,6 C 90 % 1007,1 hPa 0,3 mm 0,0 km/h (0 Bft) NO 45 0 min 1 UV-I 84 W/m 4,8 km/h (1 Bft)
26.08.2010 15:20 18,4 C 91 % 1007,1 hPa 0,0 mm 0,0 km/h (0 Bft) O-NO 67 0 min 1 UV-I 91 W/m 3,2 km/h (1 Bft)
26.08.2010 15:30 18,7 C 92 % 1007,0 hPa 0,0 mm 1,6 km/h (1 Bft) O-NO 67 0 min 2 UV-I 135 W/m 11,3 km/h (2 Bft)
26.08.2010 15:40 19,4 C 92 % 1007,2 hPa 0,0 mm 6,4 km/h (2 Bft) W 270 0 min 1 UV-I 90 W/m 19,3 km/h (3 Bft)
26.08.2010 15:50 19,7 C 91 % 1007,5 hPa 0,0 mm 3,2 km/h (1 Bft) W 270 0 min 1 UV-I 63 W/m 11,3 km/h (2 Bft)
26.08.2010 16:00 19,6 C 90 % 1007,4 hPa 0,0 mm 0,0 km/h (0 Bft) O-NO 67 0 min 1 UV-I 65 W/m 3,2 km/h (1 Bft)
26.08.2010 16:10 19,2 C 91 % 1007,0 hPa 0,3 mm 0,0 km/h (0 Bft) N 0 0 min 1 UV-I 76 W/m 0,0 km/h (0 Bft)
26.08.2010 16:20 19,1 C 91 % 1007,1 hPa 0,5 mm 0,0 km/h (0 Bft) O-NO 67 0 min 0 UV-I 47 W/m 4,8 km/h (1 Bft)
26.08.2010 16:30 19,2 C 92 % 1007,0 hPa 0,0 mm 0,0 km/h (0 Bft) NO 45 0 min 1 UV-I 156 W/m 3,2 km/h (1 Bft)
26.08.2010 16:40 19,3 C 93 % 1006,8 hPa 0,0 mm 0,0 km/h (0 Bft) NO 45 0 min 1 UV-I 183 W/m 1,6 km/h (1 Bft)
26.08.2010 16:50 19,7 C 92 % 1006,7 hPa 0,0 mm 0,0 km/h (0 Bft) N-NW 337 0 min 1 UV-I 135 W/m 6,4 km/h (2 Bft)
26.08.2010 17:00 20,0 C 91 % 1006,5 hPa 0,0 mm 1,6 km/h (1 Bft) W 270 0 min 2 UV-I 221 W/m 8,0 km/h (2 Bft)
26.08.2010 17:10 20,4 C 89 % 1006,4 hPa 0,0 mm 3,2 km/h (1 Bft) S-SW 202 0 min 1 UV-I 135 W/m 16,1 km/h (3 Bft)
26.08.2010 17:20 20,4 C 87 % 1006,3 hPa 0,0 mm 3,2 km/h (1 Bft) W-SW 247 0 min 1 UV-I 107 W/m 11,3 km/h (2 Bft)
26.08.2010 17:30 20,6 C 86 % 1006,0 hPa 0,0 mm 3,2 km/h (1 Bft) SW 225 0 min 1 UV-I 176 W/m 16,1 km/h (3 Bft)
26.08.2010 17:40 20,8 C 84 % 1006,0 hPa 0,0 mm 4,8 km/h (1 Bft) SW 225 0 min 1 UV-I 199 W/m 14,5 km/h (3 Bft)
26.08.2010 17:50 20,9 C 83 % 1006,0 hPa 0,0 mm 3,2 km/h (1 Bft) SW 225 0 min 1 UV-I 123 W/m 11,3 km/h (2 Bft)
26.08.2010 18:00 20,8 C 83 % 1006,0 hPa 0,0 mm 4,8 km/h (1 Bft) SW 225 0 min 1 UV-I 79 W/m 19,3 km/h (3 Bft)
26.08.2010 18:10 20,8 C 82 % 1005,7 hPa 0,0 mm 4,8 km/h (1 Bft) W-SW 247 0 min 1 UV-I 121 W/m 16,1 km/h (3 Bft)
26.08.2010 18:20 20,8 C 82 % 1005,6 hPa 0,0 mm 4,8 km/h (1 Bft) S-SW 202 0 min 1 UV-I 109 W/m 14,5 km/h (3 Bft)
26.08.2010 18:30 20,9 C 82 % 1005,5 hPa 0,0 mm 4,8 km/h (1 Bft) S-SW 202 0 min 1 UV-I 90 W/m 16,1 km/h (3 Bft)
26.08.2010 18:40 20,9 C 82 % 1005,4 hPa 0,0 mm 3,2 km/h (1 Bft) S-SW 202 0 min 1 UV-I 72 W/m 16,1 km/h (3 Bft)
26.08.2010 18:50 20,9 C 81 % 1005,4 hPa 0,0 mm 3,2 km/h (1 Bft) SW 225 0 min 1 UV-I 91 W/m 16,1 km/h (3 Bft)
26.08.2010 19:00 20,9 C 82 % 1005,3 hPa 0,0 mm 1,6 km/h (1 Bft) SW 225 0 min 1 UV-I 72 W/m 8,0 km/h (2 Bft)
26.08.2010 19:10 20,9 C 81 % 1005,0 hPa 0,0 mm 3,2 km/h (1 Bft) SW 225 0 min 0 UV-I 76 W/m 9,7 km/h (2 Bft)
26.08.2010 19:20 20,9 C 81 % 1005,0 hPa 0,0 mm 1,6 km/h (1 Bft) W-SW 247 0 min 0 UV-I 53 W/m 9,7 km/h (2 Bft)
26.08.2010 19:30 20,8 C 81 % 1005,0 hPa 0,0 mm 1,6 km/h (1 Bft) SW 225 0 min 0 UV-I 32 W/m 8,0 km/h (2 Bft)
26.08.2010 19:40 20,7 C 81 % 1005,0 hPa 0,0 mm 1,6 km/h (1 Bft) SW 225 0 min 0 UV-I 25 W/m 8,0 km/h (2 Bft)
26.08.2010 19:50 20,6 C 82 % 1004,9 hPa 0,0 mm 1,6 km/h (1 Bft) S-SW 202 0 min 0 UV-I 12 W/m 8,0 km/h (2 Bft)
26.08.2010 20:00 20,5 C 82 % 1004,9 hPa 0,0 mm 1,6 km/h (1 Bft) W-SW 247 0 min 0 UV-I 11 W/m 6,4 km/h (2 Bft)
26.08.2010 20:10 20,4 C 82 % 1005,1 hPa 0,0 mm 1,6 km/h (1 Bft) SW 225 0 min 0 UV-I 7 W/m 9,7 km/h (2 Bft)
26.08.2010 20:20 20,4 C 83 % 1005,1 hPa 0,0 mm 3,2 km/h (1 Bft) SW 225 0 min 0 UV-I 0 W/m 11,3 km/h (2 Bft)
26.08.2010 20:30 20,3 C 83 % 1005,1 hPa 0,0 mm 1,6 km/h (1 Bft) S-SW 202 0 min 0 UV-I 0 W/m 9,7 km/h (2 Bft)
26.08.2010 20:40 20,3 C 83 % 1004,9 hPa 0,0 mm 1,6 km/h (1 Bft) S-SW 202 0 min 0 UV-I 0 W/m 8,0 km/h (2 Bft)
26.08.2010 20:50 20,2 C 83 % 1004,9 hPa 0,0 mm 1,6 km/h (1 Bft) SW 225 0 min 0 UV-I 0 W/m 9,7 km/h (2 Bft)
26.08.2010 21:00 20,2 C 83 % 1004,9 hPa 0,0 mm 0,0 km/h (0 Bft) SW 225 0 min 0 UV-I 0 W/m 4,8 km/h (1 Bft)
26.08.2010 21:10 20,2 C 83 % 1004,9 hPa 0,0 mm 0,0 km/h (0 Bft) W-SW 247 0 min 0 UV-I 0 W/m 3,2 km/h (1 Bft)
26.08.2010 21:20 20,2 C 83 % 1005,1 hPa 0,0 mm 0,3 km/h (0 Bft) W-SW 245 0 min 0 UV-I 0 W/m 1,6 km/h (1 Bft)
26.08.2010 21:30 19,9 C 85 % 1005,1 hPa 0,0 mm 0,7 km/h (0 Bft) N-NO 15 0 min 0 UV-I 0 W/m 6,4 km/h (2 Bft)
26.08.2010 21:40 19,5 C 86 % 1005,0 hPa 0,0 mm 0,0 km/h (0 Bft) N-NO 15 0 min 0 UV-I 0 W/m 0,0 km/h (0 Bft)
26.08.2010 21:50 19,3 C 87 % 1004,8 hPa 0,0 mm 1,3 km/h (1 Bft) N-NO 24 0 min 0 UV-I 0 W/m 8,0 km/h (2 Bft)
26.08.2010 22:00 19,1 C 87 % 1004,0 hPa 0,0 mm 0,3 km/h (0 Bft) N-NO 24 0 min 0 UV-I 0 W/m 3,2 km/h (1 Bft)
26.08.2010 22:10 18,8 C 88 % 1004,0 hPa 0,0 mm 0,3 km/h (0 Bft) N-NO 24 0 min 0 UV-I 0 W/m 3,2 km/h (1 Bft)
26.08.2010 22:20 18,7 C 89 % 1003,7 hPa 0,0 mm 0,4 km/h (0 Bft) N-NO 24 0 min 0 UV-I 0 W/m 4,8 km/h (1 Bft)
26.08.2010 22:30 18,5 C 89 % 1003,8 hPa 0,0 mm 1,5 km/h (1 Bft) O 95 0 min 0 UV-I 0 W/m 6,4 km/h (2 Bft)
26.08.2010 22:40 18,4 C 90 % 1003,9 hPa 0,0 mm 0,0 km/h (0 Bft) O 90 0 min 0 UV-I 0 W/m 3,2 km/h (1 Bft)
26.08.2010 22:50 18,3 C 90 % 1003,8 hPa 0,0 mm 0,0 km/h (0 Bft) O 90 0 min 0 UV-I 0 W/m 4,8 km/h (1 Bft)
26.08.2010 23:00 18,3 C 90 % 1003,8 hPa 0,0 mm 0,0 km/h (0 Bft) O 90 0 min 0 UV-I 0 W/m 1,6 km/h (1 Bft)
26.08.2010 23:10 18,2 C 90 % 1003,6 hPa 0,0 mm 0,0 km/h (0 Bft) O 90 0 min 0 UV-I 0 W/m 4,8 km/h (1 Bft)
26.08.2010 23:20 18,2 C 90 % 1003,1 hPa 0,0 mm 0,0 km/h (0 Bft) O 90 0 min 0 UV-I 0 W/m 4,8 km/h (1 Bft)
26.08.2010 23:30 18,2 C 91 % 1002,5 hPa 0,0 mm 1,6 km/h (1 Bft) O 90 0 min 0 UV-I 0 W/m 4,8 km/h (1 Bft)
26.08.2010 23:40 18,0 C 91 % 1002,4 hPa 0,0 mm 1,6 km/h (1 Bft) O 90 0 min 0 UV-I 0 W/m 6,4 km/h (2 Bft)
26.08.2010 23:50 17,9 C 91 % 1002,2 hPa 0,0 mm 0,0 km/h (0 Bft) O 90 0 min 0 UV-I 0 W/m 1,6 km/h (1 Bft)
_ Min-Zeit 05:20 00:00 23:50 - 00:00 - - - - - 00:10
Minimum _ 14.2 C 72 % 1002.2 hPa - 0.0 km/h (0 Bft) - - - - - 0.0 km/h (0 Bft)
_ Max-Zeit 17:40 11:50 00:00 09:00 13:20 - - 00:00 12:10 12:20 13:10
Maximum _ 20.9 C 95 % 1013.6 hPa 1.8 mm 11.3 km/h
W-SW (2 Bft)
- - 0 min 3 UV-I 283 W/m 27.4 km/h
W-SW (4 Bft)
Durchschnitt _ 17.5 C 88 % 1007.6 hPa #13.7 mm 1.4 km/h (1 Bft) SW - #0 min. 1 UV-I 98 W/m 6.6 km/h (2 Bft)